When you browse on this site, cookies collect data to enhance your experience and personalize the content and advertising you see.
Visit our Privacy Policy to learn more. By continuing to use the site, you agree to this use of cookies and data.

Hourly Weather Klagenfurt

Today, 11 July, Saturday

Time Temperature Precipitation Wind Pressure Humidity
00:00 +15°C° 0 mm 1 mps 690 mmHg 73%
01:00 +15°C° 0 mm 1 mps 690 mmHg 76%
02:00 +15°C° 0 mm 1 mps 690 mmHg 77%
03:00 +15°C° 0 mm 1 mps 689 mmHg 78%
04:00 +13°C° 0 mm 0 mps 689 mmHg 79%
05:00 +15°C° 0.1 mm 1 mps 689 mmHg 78%
06:00 +18°C° 0.1 mm 1 mps 690 mmHg 78%
07:00 +19°C° 0.1 mm 1 mps 690 mmHg 78%
08:00 +20°C° 0.4 mm 1 mps 691 mmHg 78%
09:00 +20°C° 0.4 mm 1 mps 691 mmHg 77%
10:00 +21°C° 0.4 mm 1 mps 691 mmHg 76%
11:00 +22°C° 0.8 mm 1 mps 691 mmHg 78%
12:00 +22°C° 0.8 mm 1 mps 692 mmHg 80%
13:00 +22°C° 0.8 mm 1 mps 692 mmHg 82%
14:00 +20°C° 1.8 mm 1 mps 692 mmHg 86%
15:00 +18°C° 1.8 mm 2 mps 692 mmHg 91%
16:00 +16°C° 1.8 mm 2 mps 692 mmHg 95%
17:00 +15°C° 2.2 mm 2 mps 692 mmHg 96%
18:00 +14°C° 2.2 mm 2 mps 692 mmHg 96%
19:00 +12°C° 2.2 mm 2 mps 692 mmHg 97%
20:00 +12°C° 4.1 mm 1 mps 693 mmHg 97%
21:00 +11°C° 4.1 mm 1 mps 693 mmHg 97%
22:00 +10°C° 4.1 mm 1 mps 693 mmHg 97%
23:00 +10°C° 0.3 mm 1 mps 693 mmHg 97%

Tomorrow, 12 July, Sunday

Time Temperature Precipitation Wind Pressure Humidity
00:00 +9°C° 0.3 mm 1 mps 693 mmHg 97%
01:00 +9°C° 0.3 mm 1 mps 693 mmHg 97%
02:00 +9°C° 0 mm 1 mps 693 mmHg 97%
03:00 +9°C° 0 mm 1 mps 693 mmHg 97%
04:00 +8°C° 0 mm 1 mps 693 mmHg 97%
05:00 +10°C° 0 mm 1 mps 693 mmHg 95%
06:00 +11°C° 0 mm 1 mps 694 mmHg 94%
07:00 +12°C° 0 mm 1 mps 694 mmHg 92%
08:00 +14°C° 0 mm 1 mps 695 mmHg 80%
09:00 +18°C° 0 mm 1 mps 695 mmHg 69%
10:00 +19°C° 0 mm 2 mps 696 mmHg 57%
11:00 +19°C° 0 mm 2 mps 696 mmHg 54%
12:00 +20°C° 0 mm 2 mps 696 mmHg 52%
13:00 +21°C° 0 mm 2 mps 696 mmHg 49%
14:00 +21°C° 0 mm 2 mps 695 mmHg 51%
15:00 +21°C° 0 mm 2 mps 695 mmHg 52%
16:00 +20°C° 0 mm 2 mps 695 mmHg 53%
17:00 +19°C° 0.1 mm 2 mps 695 mmHg 61%
18:00 +19°C° 0.1 mm 1 mps 695 mmHg 69%
19:00 +16°C° 0.1 mm 1 mps 694 mmHg 77%
20:00 +15°C° 0 mm 1 mps 695 mmHg 79%
21:00 +13°C° 0 mm 1 mps 695 mmHg 80%
22:00 +11°C° 0 mm 1 mps 695 mmHg 82%
23:00 +11°C° 0 mm 1 mps 694 mmHg 83%

Day after tomorrow, 13 July, Monday

Time Temperature Precipitation Wind Pressure Humidity
00:00 +10°C° 0 mm 1 mps 694 mmHg 84%
01:00 +10°C° 0 mm 1 mps 694 mmHg 84%
02:00 +10°C° 0 mm 1 mps 694 mmHg 85%
03:00 +9°C° 0 mm 1 mps 694 mmHg 86%
04:00 +9°C° 0 mm 1 mps 693 mmHg 87%
05:00 +11°C° 0 mm 1 mps 694 mmHg 83%
06:00 +12°C° 0 mm 1 mps 694 mmHg 78%
07:00 +14°C° 0 mm 1 mps 694 mmHg 74%
08:00 +16°C° 0 mm 1 mps 694 mmHg 66%
09:00 +18°C° 0 mm 1 mps 694 mmHg 58%
10:00 +19°C° 0 mm 2 mps 694 mmHg 51%
11:00 +20°C° 0 mm 2 mps 694 mmHg 48%
12:00 +21°C° 0 mm 2 mps 694 mmHg 45%
13:00 +23°C° 0 mm 2 mps 694 mmHg 42%
14:00 +23°C° 0 mm 2 mps 693 mmHg 43%
15:00 +23°C° 0 mm 2 mps 693 mmHg 44%
16:00 +23°C° 0 mm 2 mps 692 mmHg 45%
17:00 +21°C° 0 mm 1 mps 692 mmHg 54%
18:00 +19°C° 0 mm 1 mps 692 mmHg 64%
19:00 +18°C° 0 mm 1 mps 692 mmHg 74%
20:00 +15°C° 0 mm 1 mps 691 mmHg 76%
21:00 +14°C° 0 mm 1 mps 691 mmHg 78%
22:00 +12°C° 0 mm 1 mps 691 mmHg 80%
23:00 +12°C° 0 mm 1 mps 691 mmHg 81%

14 July, Tuesday

Time Temperature Precipitation Wind Pressure Humidity
00:00 +11°C° 0 mm 1 mps 691 mmHg 81%
01:00 +11°C° 0 mm 1 mps 691 mmHg 81%
02:00 +11°C° 0 mm 1 mps 691 mmHg 82%
03:00 +9°C° 0 mm 0 mps 690 mmHg 83%
04:00 +9°C° 0 mm 0 mps 690 mmHg 84%
05:00 +11°C° 0 mm 0 mps 690 mmHg 79%
06:00 +12°C° 0 mm 0 mps 690 mmHg 74%
07:00 +14°C° 0 mm 0 mps 691 mmHg 70%
08:00 +18°C° 0 mm 1 mps 691 mmHg 64%
09:00 +20°C° 0 mm 1 mps 691 mmHg 58%
10:00 +21°C° 0 mm 1 mps 691 mmHg 53%
11:00 +21°C° 0 mm 2 mps 691 mmHg 52%
12:00 +21°C° 0 mm 2 mps 691 mmHg 50%
13:00 +23°C° 0 mm 2 mps 691 mmHg 49%
14:00 +23°C° 0.1 mm 2 mps 690 mmHg 51%
15:00 +23°C° 0.1 mm 2 mps 690 mmHg 52%
16:00 +21°C° 0.1 mm 2 mps 690 mmHg 54%
17:00 +21°C° 0.2 mm 1 mps 690 mmHg 62%
18:00 +19°C° 0.2 mm 1 mps 690 mmHg 69%
19:00 +18°C° 0.2 mm 1 mps 690 mmHg 77%
20:00 +16°C° 0 mm 1 mps 689 mmHg 78%
21:00 +15°C° 0 mm 1 mps 689 mmHg 79%
22:00 +13°C° 0 mm 1 mps 689 mmHg 80%
23:00 +13°C° 0 mm 1 mps 689 mmHg 81%

15 July, Wednesday

Time Temperature Precipitation Wind Pressure Humidity
00:00 +13°C° 0 mm 1 mps 689 mmHg 83%
01:00 +12°C° 0 mm 1 mps 689 mmHg 84%
02:00 +11°C° 0 mm 0 mps 689 mmHg 84%
03:00 +11°C° 0 mm 0 mps 689 mmHg 85%
04:00 +11°C° 0 mm 0 mps 688 mmHg 86%
05:00 +12°C° 0 mm 0 mps 689 mmHg 82%
06:00 +14°C° 0 mm 0 mps 689 mmHg 78%
07:00 +15°C° 0 mm 0 mps 690 mmHg 74%
08:00 +17°C° 0 mm 0 mps 690 mmHg 67%
09:00 +21°C° 0 mm 1 mps 691 mmHg 59%
10:00 +23°C° 0 mm 1 mps 691 mmHg 52%
11:00 +24°C° 0.1 mm 1 mps 691 mmHg 48%
12:00 +25°C° 0.1 mm 1 mps 691 mmHg 45%
13:00 +26°C° 0.1 mm 1 mps 691 mmHg 42%
14:00 +25°C° 0 mm 1 mps 690 mmHg 43%
15:00 +25°C° 0 mm 1 mps 690 mmHg 44%
16:00 +25°C° 0 mm 2 mps 690 mmHg 45%
17:00 +23°C° 0 mm 1 mps 690 mmHg 55%
18:00 +21°C° 0 mm 1 mps 689 mmHg 66%
19:00 +19°C° 0 mm 1 mps 689 mmHg 76%
20:00 +18°C° 0 mm 1 mps 689 mmHg 79%
21:00 +16°C° 0 mm 1 mps 690 mmHg 81%
22:00 +15°C° 0 mm 1 mps 690 mmHg 84%
23:00 +15°C° 0 mm 1 mps 690 mmHg 85%

16 July, Thursday

Time Temperature Precipitation Wind Pressure Humidity
00:00 +14°C° 0 mm 1 mps 689 mmHg 85%
01:00 +13°C° 0 mm 1 mps 689 mmHg 86%
02:00 +13°C° 0 mm 1 mps 689 mmHg 86%
03:00 +13°C° 0 mm 1 mps 689 mmHg 86%
04:00 +13°C° 0 mm 1 mps 689 mmHg 87%
05:00 +13°C° 0 mm 0 mps 689 mmHg 82%
06:00 +15°C° 0 mm 0 mps 690 mmHg 78%
07:00 +17°C° 0 mm 0 mps 690 mmHg 73%
08:00 +18°C° 0.1 mm 0 mps 691 mmHg 68%
09:00 +22°C° 0.1 mm 1 mps 691 mmHg 63%
10:00 +24°C° 0.1 mm 1 mps 692 mmHg 59%
11:00 +24°C° 0.3 mm 1 mps 692 mmHg 59%
12:00 +24°C° 0.3 mm 1 mps 691 mmHg 59%
13:00 +24°C° 0.3 mm 1 mps 691 mmHg 60%
14:00 +23°C° 0.3 mm 1 mps 691 mmHg 67%
15:00 +22°C° 0.3 mm 1 mps 690 mmHg 73%
16:00 +21°C° 0.3 mm 1 mps 690 mmHg 80%
17:00 +20°C° 0.2 mm 1 mps 690 mmHg 84%
18:00 +17°C° 0.2 mm 0 mps 690 mmHg 87%
19:00 +16°C° 0.2 mm 0 mps 690 mmHg 90%
20:00 +16°C° 0.1 mm 0 mps 690 mmHg 91%
21:00 +15°C° 0.1 mm 0 mps 690 mmHg 91%
22:00 +15°C° 0.1 mm 0 mps 691 mmHg 91%
23:00 +15°C° 0.4 mm 0 mps 690 mmHg 93%
Show more